Location: ??
(34.7252°N, 135.5457°E)
Time: 09:53:05
(UTC+00:00)

NOSS 3-4 (A) - Pass Details

Date: 24 September 2020
Orbit: 886 x 1326 km, 63.4° (Epoch: 22 October)

Event Time Altitude Azimuth Distance (km) Brightness Sun altitude
Rises 20:18:40 0° 320° (NW) 3,953 6.3 -6.9°
Reaches altitude 10° 20:21:25 10° 313° (NW) 3,054 5.7 -6.3°
Maximum altitude 20:28:13 41° 247° (WSW) 1,711 4.4 -4.9°
Drops below altitude 10° 20:35:33 10° 180° (S) 3,291 6.3 -3.4°
Sets 20:38:38 0° 174° (S) 4,288 6.9 -2.8°
